[[{"header":{"parameterUnit":"m.s-1","parameterCategory":2,"la1":30.2991,"la2":30.254,"lo1":-89.0895,"lo2":-89.0444,"dy":0.0017,"dx":0.0017,"nx":28,"ny":28,"refTime":"2023-09-06T09:00:00:Z","depth":"0","parameterNumber":2,"parameterNumberName":"U-component_of_CURRENTS"},"data":[0,0,0,0,0,0,0,0,0,0,0,0,0,0,0,0,0,0,0,0,0,0,0,0,0,0,0,0,0,0,0,0,0,0,0,0,0,0,0,0,0,0,0,0,0,0,0,0,0,0,0,0,0,0,0,0,0,0,0.2947,0.2947,0,0.295,0.295,0.2949,0.2951,0.2952,0.2952,0.2952,0.2945,0.2944,0.2944,0,0,0,0,0,0,0,0,0,0,0,0,0,0.2963,0.2962,0.2946,0.2947,0.2947,0.295,0.295,0.2949,0.2951,0.2952,0.2952,0.2952,0.2945,0.2944,0.2944,0,0,0,0,0,0,0,0,0,0,0,0,0,0.2957,0.2962,0.2946,0.2951,0.2952,0.295,0.295,0.2949,0.2951,0.2952,0.2952,0.2953,0.2945,0.2944,0.2944,0.2929,0,0,0.2941,0.2941,0,0,0,0,0,0,0,0,0.2957,0.2956,0.295,0.2951,0.2951,0.2954,0.2953,0.2943,0.2951,0.2948,0.2952,0.2953,0.2948,0.2947,0.2942,0.2929,0.2929,0.2941,0.2941,0.294,0.294,0,0,0,0,0,0,0,0.2958,0.2956,0.2944,0.295,0.2951,0.2961,0.296,0.2951,0.2943,0.2948,0.2949,0.2955,0.2948,0.2943,0.2942,0.2929,0.2941,0.2941,0.294,0.294,0.2929,0.2929,0,0,0,0,0,0,0.2962,0.2956,0.2944,0.2945,0.2959,0.296,0.2959,0.295,0.2943,0.2943,0.2954,0.2955,0.2944,0.2943,0.2942,0.2947,0.294,0.294,0.2939,0.2928,0.2929,0.2929,0,0,0,0,0,0,0.2962,0.296,0.2944,0.2954,0.2953,0.2959,0.2949,0.295,0.295,0.2948,0.2948,0.2956,0.2944,0.2943,0.2942,0.2946,0.2939,0.2939,0.2928,0.2928,0.2929,0.2942,0,0,0,0,0,0,0.2962,0.296,0.2948,0.2954,0.2953,0.2941,0.2949,0.2949,0.2954,0.2955,0.2949,0.2949,0.2945,0.2943,0.2941,0.2944,0.2938,0.2928,0.2928,0.2929,0.2941,0.2942,0.2944,0,0,0,0,0,0.2963,0.295,0.2947,0.2946,0.2938,0.2941,0.2941,0.2945,0.2954,0.2948,0.2953,0.2949,0.2944,0.2943,0.294,0.2943,0.2928,0.2928,0.2929,0.2941,0.2942,0.2944,0,0,0,0,0,0,0.296,0.2949,0.2947,0.2933,0.2936,0.2943,0.2942,0.2947,0.2945,0.2948,0.2949,0.2948,0.2955,0.2943,0.2942,0.2941,0.2936,0.2936,0.2946,0.2947,0.2948,0.2939,0.2937,0,0,0,0,0,0.2952,0.2931,0.2936,0.2924,0.2928,0.2934,0.2936,0.2939,0.2944,0.2943,0.2943,0.2944,0.2952,0.2946,0.2949,0.2938,0.2941,0.2939,0.2941,0.2942,0.2933,0.297,0.2974,0.293,0.293,0.293,0,0,0.2952,0.294,0.2932,0.2921,0.2925,0.2912,0.2935,0.2938,0.2928,0.2942,0.293,0.2953,0.2954,0.2954,0.2954,0.2943,0.2951,0.2942,0.2943,0.2933,0.2971,0.2975,0.2979,0.293,0.293,0.293,0,0,0.2939,0.293,0.2909,0.2903,0.2903,0.2903,0.2905,0.2913,0.2918,0.2912,0.2933,0.2957,0.2944,0.2958,0.2961,0.2966,0.2966,0.2967,0.2953,0.2989,0.2993,0.2997,0.2986,0.2988,0.2956,0.2956,0.2956,0,0.2939,0.29,0.2907,0.2886,0.2874,0.2897,0.2875,0.2882,0.2888,0.2901,0.2905,0.2942,0.2945,0.2968,0.2968,0.297,0.2976,0.2949,0.2992,0.2996,0.2999,0.2987,0.299,0.2956,0.2956,0.2956,0.2956,0,0.2904,0.2874,0.2866,0.2832,0.2827,0.2812,0.2824,0.2829,0.2841,0.286,0.2899,0.2923,0.2945,0.2956,0.2956,0.2989,0.2979,0.3002,0.299,0.3005,0.299,0.2993,0.2957,0.2957,0.2957,0.2957,0,0,0.2885,0.2847,0.2837,0.2806,0.2791,0.2779,0.2777,0.2785,0.2793,0.2828,0.2848,0.2887,0.2931,0.2938,0.2966,0.299,0.3013,0.2997,0.2998,0.2987,0.3063,0.2949,0.2941,0.3053,0.3054,0.3055,0.3035,0,0.2846,0.2789,0.2779,0.272,0.2691,0.2705,0.2698,0.2717,0.2747,0.2775,0.2847,0.2877,0.2916,0.2934,0.2972,0.3012,0.3024,0.3014,0.3048,0.3048,0.2948,0.2942,0.2823,0.2786,0.3038,0.3038,0.3038,0,0.2793,0.2757,0.2703,0.2652,0.2644,0.262,0.2616,0.2614,0.268,0.2712,0.2786,0.2845,0.2904,0.2929,0.3009,0.3004,0.3024,0.305,0.3051,0.2941,0.2939,0.2816,0.2782,0.2723,0.3042,0.3042,0.3042,0,0.2752,0.269,0.264,0.2621,0.2587,0.2574,0.2562,0.2605,0.2617,0.2684,0.2715,0.2809,0.285,0.292,0.298,0.2998,0.3048,0.3083,0.2996,0.2988,0.2886,0.2866,0.2798,0.3123,0.3123,0.3123,0.3123,0,0.2695,0.2644,0.2616,0.2584,0.2524,0.2529,0.2503,0.2516,0.2568,0.2595,0.2687,0.2734,0.2853,0.2908,0.2963,0.2972,0.3039,0.2978,0.2977,0.2882,0.2863,0.2807,0.2794,0.3122,0.3122,0.3123,0.3123,0,0.2643,0.2631,0.2556,0.2515,0.2501,0.2458,0.2446,0.2444,0.2502,0.254,0.2564,0.2677,0.2747,0.2834,0.2922,0.2923,0.2858,0.294,0.2789,0.2769,0.2612,0.2603,0.2401,0.2338,0.2832,0.283,0.2827,0,0.2604,0.2568,0.2498,0.2456,0.2429,0.2386,0.2367,0.2403,0.2416,0.2512,0.2529,0.2612,0.2674,0.2733,0.2749,0.2777,0.2747,0.2647,0.2656,0.2559,0.2553,0.2457,0.2416,0.2527,0.2522,0.2518,0.2515,0,0.2508,0.2493,0.2433,0.2364,0.232,0.2279,0.2263,0.2274,0.2339,0.2379,0.2448,0.2507,0.257,0.2546,0.2546,0.2559,0.2488,0.2564,0.2529,0.234,0.2168,0.2123,0.2561,0.2481,0.2484,0.2487,0.2489,0.249,0.2417,0.2359,0.2298,0.2222,0.2189,0.2165,0.2119,0.2149,0.2162,0.2211,0.2329,0.2363,0.2382,0.2377,0.2352,0.221,0.225,0.2155,0.2161,0.2079,0.1975,0.2294,0.2176,0.2178,0.2179,0.218,0.2181,0,0.2263,0.2221,0.2157,0.2064,0.2011,0.2039,0.203,0.1995,0.1987,0.2082,0.213,0.2134,0.2076,0.2073,0.1956,0.1845,0.1777,0.1782,0.1666,0.1659,0.2007,0.1953,0.1701,0.1701,0.1701,0.1701,0.1701,0.1701,0.2171,0.2057,0.2035,0.1901,0.1863,0.1781,0.1767,0.1758,0.1796,0.1797,0.1801,0.1853,0.1877,0.1769,0.1626,0.1581,0.148,0.1343,0.1388,0.1694,0.1731,0.1766,0.1712,0.1414,0.1414,0.0965,0.0962,0.096]},{"header":{"parameterUnit":"m.s-1","parameterCategory":2,"la1":30.2991,"la2":30.254,"lo1":-89.0895,"lo2":-89.0444,"dy":0.0017,"dx":0.0017,"nx":28,"ny":28,"refTime":"2023-09-06T09:00:00:Z","depth":"0","parameterNumber":3,"parameterNumberName":"V-component_of_CURRENTS"},"data":[0,0,0,0,0,0,0,0,0,0,0,0,0,0,0,0,0,0,0,0,0,0,0,0,0,0,0,0,0,0,0,0,0,0,0,0,0,0,0,0,0,0,0,0,0,0,0,0,0,0,0,0,0,0,0,0,0,0,0.0541,0.0541,0,0.052,0.052,0.0519,0.0496,0.0496,0.0496,0.0496,0.0413,0.0411,0.0409,0,0,0,0,0,0,0,0,0,0,0,0,0,0.0508,0.0509,0.0541,0.0541,0.0541,0.052,0.052,0.0519,0.0496,0.0496,0.0496,0.0496,0.0414,0.0411,0.0409,0,0,0,0,0,0,0,0,0,0,0,0,0,0.0505,0.0509,0.0541,0.053,0.0529,0.0521,0.052,0.0519,0.0496,0.0496,0.0496,0.0496,0.0415,0.0412,0.0408,0.0388,0,0,0.0398,0.0397,0,0,0,0,0,0,0,0,0.0505,0.0505,0.0532,0.0531,0.053,0.0514,0.0478,0.0473,0.0496,0.0504,0.0496,0.0496,0.0444,0.0438,0.0429,0.0384,0.038,0.0398,0.0396,0.0395,0.0394,0,0,0,0,0,0,0,0.0505,0.0506,0.0529,0.0532,0.0531,0.0509,0.0508,0.0477,0.047,0.0503,0.0503,0.0507,0.0442,0.0433,0.0427,0.0379,0.0398,0.0395,0.0393,0.0392,0.032,0.032,0,0,0,0,0,0,0.0519,0.0507,0.053,0.0529,0.0522,0.051,0.0509,0.0516,0.0472,0.0466,0.0507,0.0506,0.0438,0.0431,0.0424,0.041,0.0395,0.0392,0.039,0.032,0.032,0.0321,0,0,0,0,0,0,0.0518,0.0521,0.053,0.052,0.052,0.0511,0.0518,0.0516,0.0511,0.0476,0.0468,0.0507,0.0438,0.0429,0.0399,0.0406,0.039,0.0387,0.032,0.032,0.032,0.0372,0,0,0,0,0,0,0.0517,0.0521,0.0524,0.0521,0.0521,0.0533,0.0519,0.0515,0.0515,0.0514,0.0473,0.0465,0.0437,0.0405,0.0396,0.0401,0.0384,0.032,0.032,0.032,0.037,0.0374,0.0377,0,0,0,0,0,0.0516,0.0523,0.0524,0.0527,0.0528,0.0534,0.0532,0.0522,0.0515,0.0516,0.0486,0.0466,0.04,0.0402,0.0392,0.0396,0.032,0.032,0.032,0.0369,0.0373,0.0377,0,0,0,0,0,0,0.0509,0.0522,0.0523,0.0533,0.0538,0.0532,0.0532,0.0527,0.0504,0.0501,0.0463,0.0453,0.043,0.0405,0.0408,0.0376,0.0358,0.0357,0.0398,0.0402,0.0405,0.0435,0.0382,0,0,0,0,0,0.0511,0.052,0.0529,0.0537,0.0544,0.0539,0.0538,0.0536,0.0521,0.0512,0.0484,0.0452,0.0422,0.0407,0.0376,0.0356,0.0346,0.0353,0.0357,0.036,0.0377,0.0374,0.038,0.0321,0.0321,0.0321,0,0,0.0509,0.0519,0.0522,0.0536,0.0538,0.055,0.0537,0.0546,0.0548,0.0505,0.0491,0.0461,0.0419,0.0398,0.0386,0.0378,0.0366,0.036,0.0363,0.0379,0.0375,0.0381,0.0386,0.0321,0.0321,0.0321,0,0,0.0518,0.0523,0.0537,0.0546,0.0561,0.0558,0.0565,0.0565,0.0558,0.0544,0.0513,0.0493,0.0445,0.0424,0.0404,0.0408,0.0384,0.0394,0.0435,0.0432,0.0438,0.0442,0.0421,0.0423,0.0397,0.0397,0.0397,0,0.0514,0.0539,0.054,0.0561,0.057,0.0567,0.0584,0.0577,0.0564,0.0563,0.0547,0.05,0.0461,0.0446,0.0445,0.0418,0.0407,0.0424,0.0439,0.0443,0.0447,0.0424,0.0426,0.04,0.0399,0.0399,0.0399,0,0.0539,0.0558,0.0569,0.0592,0.0598,0.0615,0.0615,0.0615,0.0605,0.0601,0.059,0.0547,0.0526,0.0505,0.0472,0.0479,0.0458,0.0444,0.0434,0.0457,0.043,0.0431,0.0403,0.0402,0.0402,0.0401,0,0,0.0533,0.0578,0.0582,0.0603,0.0619,0.0629,0.0635,0.0645,0.0659,0.0642,0.0659,0.0608,0.0601,0.058,0.0544,0.0538,0.054,0.0507,0.0506,0.0496,0.0524,0.0506,0.0505,0.0532,0.0533,0.0533,0.0489,0,0.0553,0.0601,0.0611,0.0645,0.0671,0.0671,0.0678,0.0683,0.0682,0.0696,0.0672,0.0668,0.0625,0.062,0.061,0.0564,0.0548,0.0553,0.0496,0.0494,0.0484,0.0508,0.054,0.0504,0.049,0.049,0.049,0,0.0576,0.0607,0.0652,0.0687,0.0697,0.0708,0.073,0.0739,0.0753,0.0757,0.0764,0.0747,0.0739,0.0699,0.0651,0.0658,0.0598,0.0558,0.0555,0.0528,0.0479,0.048,0.0506,0.0466,0.0492,0.0492,0.0492,0,0.0585,0.0631,0.0669,0.0684,0.0721,0.0732,0.0742,0.0758,0.0784,0.0804,0.0834,0.0817,0.0817,0.0764,0.0683,0.0669,0.0629,0.0594,0.0518,0.0515,0.0527,0.0524,0.052,0.0559,0.0559,0.0559,0.0559,0,0.0609,0.0637,0.0679,0.0704,0.0741,0.0752,0.0793,0.0802,0.0843,0.0897,0.0873,0.0915,0.0836,0.0804,0.0718,0.0633,0.0654,0.0538,0.0513,0.0542,0.0541,0.0493,0.0462,0.0557,0.0558,0.0558,0.0558,0,0.062,0.0651,0.0696,0.0739,0.0753,0.0777,0.0831,0.0871,0.0897,0.0973,0.0989,0.0992,0.0954,0.0862,0.0768,0.0679,0.0573,0.0549,0.0579,0.0559,0.0448,0.0419,0.0387,0.0375,0.0464,0.0464,0.0463,0,0.0633,0.0662,0.072,0.0749,0.077,0.0812,0.0854,0.0895,0.0955,0.103,0.1082,0.1063,0.1078,0.0931,0.0776,0.0629,0.0564,0.0532,0.051,0.0462,0.0411,0.0393,0.0385,0.0533,0.0533,0.0533,0.0533,0,0.0653,0.0674,0.0715,0.0776,0.0824,0.0887,0.0953,0.1013,0.1085,0.1158,0.1245,0.126,0.1128,0.1011,0.0793,0.068,0.0528,0.0528,0.0485,0.0478,0.0456,0.0426,0.0523,0.0534,0.0534,0.0534,0.0534,0.0534,0.0662,0.069,0.0746,0.0804,0.0867,0.0961,0.1022,0.1118,0.1231,0.135,0.1361,0.1412,0.1228,0.095,0.0791,0.0535,0.0525,0.0459,0.0428,0.0415,0.0413,0.0504,0.0483,0.0483,0.0482,0.0482,0.0482,0,0.0669,0.0712,0.0768,0.085,0.0926,0.096,0.1092,0.1176,0.132,0.1433,0.151,0.1478,0.1257,0.1005,0.0663,0.0486,0.0425,0.0388,0.0386,0.0381,0.0472,0.0486,0.046,0.046,0.046,0.046,0.046,0.046,0.0675,0.0726,0.0762,0.0883,0.0948,0.1064,0.1145,0.1279,0.1393,0.1543,0.1601,0.1625,0.1469,0.0871,0.0515,0.0428,0.034,0.0298,0.0247,0.032,0.0325,0.033,0.0338,0.0281,0.0281,0.0199,0.0198,0.0197]}],[{"header":{"parameterUnit":"m.s-1","parameterCategory":2,"la1":30.2991,"la2":30.254,"lo1":-89.0895,"lo2":-89.0444,"dy":0.0017,"dx":0.0017,"nx":28,"ny":28,"refTime":"2023-09-06T09:00:00:Z","depth":"2","parameterNumber":2,"parameterNumberName":"U-component_of_CURRENTS"},"data":[0,0,0,0,0,0,0,0,0,0,0,0,0,0,0,0,0,0,0,0,0,0,0,0,0,0,0,0,0,0,0,0,0,0,0,0,0,0,0,0,0,0,0,0,0,0,0,0,0,0,0,0,0,0,0,0,0,0,0.2251,0.2252,0,0.2304,0.2304,0.2304,0.2309,0.2308,0.2308,0.2308,0.2303,0.2303,0.2303,0,0,0,0,0,0,0,0,0,0,0,0,0,0.2213,0.2213,0.2251,0.2252,0.2253,0.2304,0.2304,0.2304,0.2309,0.2308,0.2308,0.2308,0.2303,0.2303,0.2303,0,0,0,0,0,0,0,0,0,0,0,0,0,0.224,0.2213,0.2251,0.2265,0.2267,0.2304,0.2304,0.2304,0.2309,0.2308,0.2308,0.2308,0.2303,0.2303,0.2303,0.2309,0,0,0.2304,0.2304,0,0,0,0,0,0,0,0,0.2238,0.2241,0.2262,0.2264,0.2266,0.2303,0.2289,0.2304,0.2309,0.2288,0.2308,0.2308,0.2301,0.2301,0.2306,0.2308,0.2308,0.2304,0.2304,0.2304,0.2304,0,0,0,0,0,0,0,0.2236,0.2239,0.2268,0.2263,0.2266,0.2289,0.2291,0.2292,0.2291,0.229,0.2292,0.2304,0.2301,0.2306,0.2306,0.2308,0.2304,0.2304,0.2304,0.2304,0.2351,0.2352,0,0,0,0,0,0,0.2236,0.2237,0.2266,0.227,0.2256,0.229,0.2292,0.2288,0.2292,0.2294,0.2304,0.2304,0.2306,0.2306,0.2306,0.2336,0.2304,0.2304,0.2304,0.235,0.2351,0.2352,0,0,0,0,0,0,0.2234,0.2237,0.2264,0.2259,0.2264,0.229,0.2286,0.2289,0.2305,0.2305,0.2305,0.2319,0.2306,0.2306,0.2317,0.2335,0.2304,0.2304,0.2348,0.235,0.2352,0.238,0,0,0,0,0,0,0.2233,0.2236,0.224,0.2258,0.2265,0.2286,0.2287,0.2291,0.2315,0.2315,0.2317,0.2315,0.2306,0.2317,0.2317,0.2334,0.2304,0.2347,0.2349,0.2351,0.2378,0.2383,0.2387,0,0,0,0,0,0.2231,0.2235,0.2239,0.2244,0.2266,0.2287,0.2292,0.2308,0.2316,0.2321,0.2328,0.2316,0.2332,0.2318,0.2318,0.2335,0.2345,0.2348,0.2351,0.2376,0.2382,0.2387,0,0,0,0,0,0,0.222,0.2237,0.2242,0.225,0.2269,0.2289,0.2305,0.2317,0.2328,0.2333,0.2327,0.2326,0.2342,0.2339,0.2324,0.2358,0.2339,0.2342,0.2358,0.2364,0.2368,0.2361,0.2304,0,0,0,0,0,0.2221,0.2227,0.2247,0.2255,0.2266,0.2289,0.2304,0.2315,0.2329,0.2334,0.2338,0.2346,0.2353,0.2358,0.2361,0.2378,0.2372,0.2392,0.2397,0.2401,0.2397,0.243,0.2437,0.2361,0.2361,0.2361,0,0,0.2217,0.2232,0.2233,0.2254,0.2271,0.2283,0.2296,0.2323,0.2333,0.2332,0.235,0.236,0.2362,0.2379,0.2387,0.2379,0.2415,0.2404,0.2407,0.2401,0.2434,0.2441,0.2447,0.2363,0.2363,0.2363,0,0,0.2218,0.2228,0.2236,0.225,0.2284,0.2295,0.2305,0.2333,0.2347,0.2368,0.2372,0.2395,0.2405,0.2412,0.2416,0.245,0.2438,0.2459,0.2477,0.251,0.2516,0.2521,0.25,0.2503,0.2463,0.2463,0.2463,0,0.2212,0.2222,0.2243,0.2257,0.2267,0.2298,0.2306,0.2326,0.2355,0.2365,0.2375,0.2412,0.2418,0.2439,0.2457,0.2459,0.2462,0.2452,0.2515,0.2521,0.2526,0.2502,0.2506,0.2465,0.2465,0.2464,0.2464,0,0.2223,0.2228,0.2237,0.2254,0.2269,0.2284,0.2311,0.2331,0.2356,0.2374,0.2411,0.2435,0.2455,0.2471,0.2474,0.2518,0.25,0.2515,0.2497,0.2535,0.2508,0.2511,0.2467,0.2467,0.2466,0.2466,0,0,0.2195,0.2234,0.2232,0.2233,0.2268,0.2273,0.2299,0.2321,0.2335,0.2381,0.2403,0.2445,0.2473,0.2481,0.2503,0.2539,0.2576,0.2549,0.255,0.252,0.2616,0.253,0.2525,0.2613,0.2614,0.2615,0.2573,0,0.2189,0.2208,0.2228,0.2227,0.2234,0.226,0.2274,0.2302,0.2335,0.2365,0.2415,0.2445,0.2473,0.2496,0.2541,0.2571,0.259,0.2583,0.259,0.2589,0.2504,0.2528,0.2345,0.2287,0.2576,0.2576,0.2576,0,0.2183,0.2197,0.2205,0.2208,0.2212,0.2218,0.2239,0.2258,0.2309,0.234,0.2393,0.2431,0.2489,0.2517,0.2582,0.2581,0.2599,0.2619,0.2619,0.2531,0.251,0.2303,0.2281,0.2581,0.2581,0.258,0.258,0,0.2151,0.2164,0.2168,0.2172,0.2195,0.2199,0.221,0.2253,0.2272,0.2332,0.2363,0.2428,0.2473,0.2524,0.2577,0.2587,0.2637,0.2649,0.2574,0.2566,0.2404,0.238,0.2685,0.2685,0.2685,0.2686,0.2686,0,0.2125,0.2119,0.2154,0.2153,0.2144,0.2175,0.2178,0.2202,0.2256,0.2281,0.2355,0.2395,0.2489,0.2533,0.2569,0.2572,0.2627,0.2568,0.2559,0.2406,0.2383,0.2641,0.2637,0.2684,0.2684,0.2685,0.2685,0,0.208,0.2108,0.2105,0.2129,0.2131,0.2126,0.2149,0.2156,0.222,0.2261,0.2285,0.2379,0.2434,0.2493,0.256,0.2546,0.2562,0.2546,0.2332,0.2299,0.246,0.2458,0.2441,0.2438,0.2436,0.2433,0.2431,0,0.2058,0.2061,0.2078,0.2068,0.2075,0.2077,0.2078,0.2131,0.2149,0.2247,0.2264,0.2341,0.2379,0.2419,0.2411,0.2407,0.2499,0.2215,0.2203,0.2447,0.244,0.2442,0.2444,0.1986,0.198,0.1976,0.1972,0,0.2008,0.2024,0.2018,0.2007,0.2001,0.1993,0.2008,0.2021,0.2094,0.2133,0.2191,0.2233,0.2279,0.2193,0.2183,0.2166,0.22,0.2123,0.2447,0.2083,0.2016,0.201,0.2027,0.1933,0.1937,0.194,0.1942,0.1944,0.1962,0.194,0.194,0.1913,0.1911,0.1901,0.187,0.1906,0.1922,0.196,0.2061,0.2052,0.206,0.1957,0.1886,0.1822,0.1986,0.1892,0.1907,0.1925,0.1888,0.1821,0.169,0.1693,0.1695,0.1697,0.1698,0,0.1874,0.1858,0.1838,0.1801,0.1766,0.1803,0.1803,0.1764,0.1748,0.1815,0.1841,0.1688,0.1619,0.1632,0.1478,0.1454,0.1453,0.1387,0.1376,0.1416,0.1452,0.1391,0.1061,0.1059,0.1057,0.1055,0,0,0.1825,0.1765,0.175,0.166,0.1643,0.1577,0.1562,0.1535,0.1548,0.1511,0.1487,0.1591,0.1615,0.1338,0.128,0.1148,0.1281,0.11,0.1616,0.1647,0.168,0.1749,0.17,0,0,0,0,0]},{"header":{"parameterUnit":"m.s-1","parameterCategory":2,"la1":30.2991,"la2":30.254,"lo1":-89.0895,"lo2":-89.0444,"dy":0.0017,"dx":0.0017,"nx":28,"ny":28,"refTime":"2023-09-06T09:00:00:Z","depth":"2","parameterNumber":3,"parameterNumberName":"V-component_of_CURRENTS"},"data":[0,0,0,0,0,0,0,0,0,0,0,0,0,0,0,0,0,0,0,0,0,0,0,0,0,0,0,0,0,0,0,0,0,0,0,0,0,0,0,0,0,0,0,0,0,0,0,0,0,0,0,0,0,0,0,0,0,0,0.033,0.033,0,0.0321,0.032,0.032,0.0299,0.0299,0.0298,0.0298,0.0221,0.022,0.0218,0,0,0,0,0,0,0,0,0,0,0,0,0,0.0278,0.0279,0.033,0.033,0.033,0.0321,0.032,0.032,0.0299,0.0299,0.0298,0.0298,0.0222,0.022,0.0217,0,0,0,0,0,0,0,0,0,0,0,0,0,0.0284,0.028,0.033,0.0322,0.0321,0.0321,0.032,0.0319,0.0299,0.0299,0.0298,0.0298,0.0223,0.022,0.0217,0.02,0,0,0.0208,0.0206,0,0,0,0,0,0,0,0,0.0284,0.0285,0.0323,0.0322,0.0322,0.0315,0.0274,0.0278,0.0299,0.0303,0.0298,0.0298,0.0249,0.0244,0.0237,0.0196,0.0193,0.0208,0.0206,0.0204,0.0204,0,0,0,0,0,0,0,0.0283,0.0285,0.0322,0.0323,0.0323,0.0302,0.0302,0.0274,0.0272,0.0302,0.0302,0.0308,0.0248,0.024,0.0235,0.0192,0.0208,0.0205,0.0203,0.0202,0.0139,0.014,0,0,0,0,0,0,0.0296,0.0285,0.0322,0.0322,0.0307,0.0303,0.0304,0.0313,0.0273,0.0269,0.0308,0.0307,0.0245,0.0239,0.0232,0.0221,0.0204,0.0202,0.02,0.0139,0.014,0.014,0,0,0,0,0,0,0.0295,0.03,0.0322,0.0306,0.0308,0.0305,0.0315,0.0313,0.0311,0.0279,0.0273,0.0309,0.0245,0.0236,0.0212,0.0217,0.02,0.0197,0.0139,0.0139,0.014,0.019,0,0,0,0,0,0,0.0294,0.0299,0.0308,0.0308,0.031,0.0331,0.0316,0.0313,0.0317,0.0315,0.0278,0.0271,0.0244,0.0217,0.0209,0.0213,0.0195,0.0139,0.0139,0.014,0.0188,0.0192,0.0195,0,0,0,0,0,0.0292,0.0306,0.0308,0.0312,0.0323,0.0333,0.0331,0.0325,0.0317,0.0321,0.0293,0.0272,0.0213,0.0214,0.0205,0.0208,0.0139,0.0139,0.014,0.0187,0.0191,0.0195,0,0,0,0,0,0,0.0284,0.0306,0.0308,0.0327,0.0334,0.0331,0.0337,0.033,0.0312,0.031,0.0271,0.0262,0.0242,0.0218,0.0221,0.0191,0.0173,0.0172,0.0212,0.0216,0.022,0.0246,0.0193,0,0,0,0,0,0.0289,0.0308,0.032,0.0335,0.0343,0.034,0.0342,0.0341,0.0329,0.0321,0.0295,0.0264,0.0235,0.0222,0.0193,0.0177,0.0164,0.0173,0.0177,0.018,0.0195,0.0183,0.0187,0.0141,0.0141,0.0141,0,0,0.0289,0.0305,0.0314,0.0335,0.034,0.0355,0.034,0.0354,0.0357,0.0314,0.0304,0.0274,0.0233,0.0215,0.0204,0.0197,0.0184,0.018,0.0183,0.0197,0.0184,0.0189,0.0193,0.0141,0.0141,0.0141,0,0,0.0305,0.0316,0.0339,0.0351,0.0371,0.037,0.0377,0.0379,0.0372,0.0362,0.0329,0.031,0.0265,0.0243,0.0223,0.023,0.0201,0.0215,0.0255,0.0243,0.0247,0.0251,0.0233,0.0234,0.0218,0.0219,0.0219,0,0.0303,0.0338,0.0345,0.0371,0.0383,0.038,0.0402,0.0394,0.0385,0.038,0.0367,0.0316,0.0282,0.0262,0.0264,0.024,0.0225,0.0243,0.0249,0.0252,0.0255,0.0236,0.0237,0.0221,0.0221,0.0221,0.022,0,0.034,0.0366,0.0381,0.0413,0.0422,0.0443,0.0442,0.0442,0.0431,0.0423,0.0406,0.0366,0.0341,0.0322,0.0294,0.0293,0.0273,0.0254,0.0243,0.0263,0.0241,0.0241,0.0225,0.0224,0.0223,0.0222,0,0,0.0342,0.0397,0.0403,0.0425,0.0448,0.046,0.0467,0.0473,0.0482,0.0463,0.0472,0.0424,0.0412,0.039,0.0354,0.0344,0.0344,0.0314,0.0312,0.0304,0.0314,0.0305,0.0304,0.0325,0.0326,0.0326,0.0288,0,0.0369,0.0428,0.0442,0.0483,0.0513,0.051,0.0516,0.0517,0.0512,0.0517,0.0484,0.0476,0.0434,0.0428,0.0412,0.0363,0.0348,0.0356,0.0289,0.0287,0.0284,0.0306,0.0318,0.0286,0.0288,0.0288,0.0288,0,0.0404,0.044,0.0493,0.0529,0.054,0.0554,0.0571,0.0579,0.0579,0.0577,0.0571,0.0547,0.0529,0.0495,0.0434,0.0441,0.0387,0.0348,0.0345,0.0324,0.028,0.0266,0.0286,0.0288,0.0288,0.0288,0.0288,0,0.0417,0.0471,0.0515,0.0531,0.057,0.058,0.0591,0.0597,0.0616,0.0624,0.0646,0.061,0.0606,0.0543,0.0464,0.0449,0.04,0.0364,0.0304,0.0302,0.0295,0.0292,0.0327,0.0327,0.0327,0.0327,0.0327,0,0.0448,0.0481,0.0525,0.0554,0.0591,0.0605,0.0641,0.0646,0.0674,0.0715,0.0684,0.0709,0.0621,0.058,0.0494,0.0409,0.0419,0.0324,0.0299,0.0311,0.031,0.0297,0.0295,0.0326,0.0326,0.0326,0.0327,0,0.0464,0.0498,0.0547,0.0592,0.0605,0.063,0.0679,0.0711,0.0732,0.0789,0.08,0.0787,0.0739,0.0642,0.0541,0.0454,0.0367,0.0329,0.0348,0.0327,0.0266,0.0266,0.026,0.026,0.0259,0.0259,0.0259,0,0.0481,0.0514,0.0572,0.0599,0.0621,0.0663,0.07,0.0735,0.0784,0.084,0.0878,0.0852,0.0848,0.0698,0.0551,0.0408,0.0375,0.0308,0.0284,0.0287,0.0263,0.0263,0.0264,0.0285,0.0285,0.0285,0.0285,0,0.0506,0.0526,0.0565,0.0624,0.0667,0.0725,0.0783,0.0833,0.0893,0.095,0.1012,0.1013,0.0885,0.0753,0.0555,0.0449,0.0333,0.0302,0.0309,0.0304,0.0308,0.0285,0.0285,0.0285,0.0285,0.0285,0.0285,0.0285,0.0514,0.0537,0.0589,0.0642,0.0701,0.0782,0.0836,0.0917,0.101,0.1099,0.1101,0.1108,0.0948,0.0707,0.0527,0.0334,0.0347,0.0261,0.0262,0.0263,0.0276,0.0281,0.0254,0.0254,0.0254,0.0253,0.0253,0,0.0516,0.0551,0.0602,0.0674,0.0742,0.0778,0.0891,0.0959,0.1077,0.1156,0.121,0.1061,0.0916,0.0725,0.0454,0.0287,0.0263,0.0214,0.0228,0.023,0.0232,0.0243,0.0212,0.0211,0.021,0.021,0,0,0.0518,0.0558,0.0587,0.0692,0.0752,0.0855,0.0925,0.1036,0.112,0.1198,0.121,0.1203,0.0986,0.0772,0.0548,0.0387,0.034,0.0341,0.0396,0.0443,0.0446,0.0284,0.0308,0,0,0,0,0]}],[{"header":{"parameterUnit":"m.s-1","parameterCategory":2,"la1":30.2991,"la2":30.254,"lo1":-89.0895,"lo2":-89.0444,"dy":0.0017,"dx":0.0017,"nx":28,"ny":28,"refTime":"2023-09-06T09:00:00:Z","depth":"4","parameterNumber":2,"parameterNumberName":"U-component_of_CURRENTS"},"data":[0,0,0,0,0,0,0,0,0,0,0,0,0,0,0,0,0,0,0,0,0,0,0,0,0,0,0,0,0,0,0,0,0,0,0,0,0,0,0,0,0,0,0,0,0,0,0,0,0,0,0,0,0,0,0,0,0,0,0.1276,0.1277,0,0.1282,0.1282,0.1282,0.1289,0.1289,0.1289,0.1289,0.132,0.1321,0.1321,0,0,0,0,0,0,0,0,0,0,0,0,0,0.1268,0.1268,0.1276,0.1277,0.1277,0.1282,0.1282,0.1282,0.1288,0.1289,0.1289,0.129,0.132,0.132,0.1321,0,0,0,0,0,0,0,0,0,0,0,0,0,0.127,0.1268,0.1276,0.1283,0.1283,0.1282,0.1282,0.1282,0.1288,0.1289,0.1289,0.129,0.132,0.132,0.1321,0.1317,0,0,0.1324,0.1324,0,0,0,0,0,0,0,0,0.127,0.127,0.1281,0.1282,0.1283,0.1287,0.129,0.1296,0.1288,0.1284,0.1289,0.129,0.1312,0.1314,0.131,0.1318,0.1319,0.1324,0.1324,0.1324,0.1325,0,0,0,0,0,0,0,0.127,0.127,0.1276,0.1282,0.1283,0.1284,0.1285,0.1291,0.1294,0.1284,0.1286,0.129,0.1313,0.1309,0.1311,0.132,0.1324,0.1324,0.1325,0.1325,0.1396,0.1397,0,0,0,0,0,0,0.1274,0.127,0.1276,0.1277,0.128,0.1284,0.1285,0.1283,0.1294,0.1296,0.1289,0.129,0.1308,0.131,0.1312,0.1362,0.1324,0.1325,0.1326,0.1395,0.1396,0.1398,0,0,0,0,0,0,0.1273,0.1274,0.1276,0.1276,0.1276,0.1284,0.1282,0.1283,0.1314,0.1297,0.13,0.1323,0.1308,0.1311,0.1337,0.1362,0.1326,0.1326,0.1393,0.1395,0.1397,0.1428,0,0,0,0,0,0,0.1273,0.1273,0.1289,0.1276,0.1277,0.1296,0.1282,0.1283,0.1314,0.1316,0.1327,0.1328,0.1309,0.1336,0.1338,0.1362,0.1327,0.1391,0.1394,0.1396,0.1425,0.1431,0.1435,0,0,0,0,0,0.1272,0.1279,0.129,0.1291,0.1292,0.1297,0.1298,0.1303,0.1316,0.1332,0.1336,0.1329,0.1355,0.1338,0.134,0.1364,0.139,0.1393,0.1396,0.1422,0.1429,0.1435,0,0,0,0,0,0,0.1276,0.128,0.1291,0.1299,0.1312,0.13,0.1315,0.1327,0.1343,0.1353,0.1342,0.1343,0.1378,0.1371,0.1353,0.1395,0.1374,0.1377,0.1393,0.14,0.1405,0.1422,0.1328,0,0,0,0,0,0.1287,0.1302,0.1304,0.1317,0.1324,0.1332,0.1342,0.135,0.1355,0.1364,0.1371,0.138,0.1387,0.1395,0.1402,0.1421,0.1425,0.1442,0.1447,0.1452,0.1469,0.1488,0.1496,0.1408,0.1408,0.1408,0,0,0.1292,0.13,0.1308,0.1322,0.1331,0.1345,0.1339,0.1363,0.1378,0.1365,0.1396,0.1405,0.14,0.1419,0.1434,0.1418,0.1478,0.1456,0.1459,0.1474,0.1492,0.1501,0.1508,0.141,0.141,0.141,0,0,0.13,0.1318,0.1331,0.1349,0.1375,0.1377,0.1396,0.1407,0.1417,0.1447,0.144,0.1467,0.1482,0.1474,0.1473,0.1518,0.1511,0.1527,0.1559,0.1577,0.1585,0.1591,0.16,0.1607,0.1522,0.1522,0.1522,0,0.1313,0.1325,0.1338,0.1358,0.1378,0.1398,0.1419,0.1426,0.1448,0.146,0.1468,0.1506,0.1506,0.1519,0.1535,0.153,0.1538,0.1529,0.1583,0.159,0.1596,0.1604,0.1611,0.1524,0.1524,0.1523,0.1523,0,0.132,0.1348,0.1359,0.1392,0.1415,0.1439,0.1453,0.1479,0.1506,0.1514,0.1556,0.1558,0.1581,0.1585,0.1574,0.1616,0.1608,0.1591,0.1563,0.1606,0.1612,0.1619,0.1527,0.1526,0.1525,0.1525,0,0,0.1304,0.1355,0.1364,0.139,0.144,0.1453,0.1486,0.1512,0.1538,0.157,0.1603,0.1625,0.1645,0.1647,0.164,0.1657,0.1704,0.165,0.165,0.1653,0.1746,0.1625,0.162,0.1697,0.1698,0.17,0.1731,0,0.1313,0.1354,0.138,0.1429,0.145,0.1488,0.1514,0.1547,0.1577,0.1613,0.1628,0.1664,0.1658,0.1683,0.17,0.1709,0.1727,0.1698,0.1711,0.1711,0.1592,0.1626,0.1705,0.1736,0.1737,0.1739,0.1739,0,0.1305,0.1342,0.1389,0.1448,0.1462,0.1499,0.1557,0.1584,0.163,0.1656,0.1699,0.1717,0.1756,0.1746,0.1785,0.1769,0.1773,0.1773,0.1773,0.1657,0.1603,0.1687,0.1752,0.1751,0.175,0.1749,0.1748,0,0.1273,0.1341,0.1382,0.1407,0.1477,0.1512,0.1554,0.1608,0.1634,0.1698,0.1737,0.1773,0.1811,0.1825,0.1837,0.1821,0.1874,0.184,0.1732,0.1723,0.1809,0.1802,0.1875,0.1875,0.1875,0.1875,0.1875,0,0.1253,0.129,0.1379,0.1402,0.1458,0.1514,0.1571,0.1612,0.168,0.1711,0.1768,0.1794,0.184,0.1867,0.1861,0.1818,0.1892,0.1749,0.1726,0.1821,0.1815,0.1814,0.1806,0.1876,0.1876,0.1876,0.1876,0,0.1203,0.126,0.1316,0.1411,0.1443,0.1488,0.1581,0.1609,0.1691,0.1738,0.1767,0.1834,0.186,0.1885,0.1909,0.1839,0.1816,0.1784,0.1896,0.1877,0.1646,0.164,0.1652,0.1648,0.1645,0.1642,0.1639,0,0.1175,0.1203,0.1316,0.1351,0.1401,0.1475,0.1513,0.1604,0.1633,0.1737,0.1747,0.1817,0.1841,0.1776,0.1813,0.1785,0.1761,0.1735,0.1679,0.1649,0.1625,0.1624,0.1623,0.1634,0.1633,0.1632,0.1631,0,0.1134,0.119,0.1238,0.1309,0.1366,0.1414,0.1482,0.1495,0.1585,0.1676,0.1676,0.1674,0.1698,0.1692,0.1693,0.1668,0.1739,0.1699,0.1705,0.1652,0.1627,0.1607,0.1609,0.162,0.1621,0.1622,0.1623,0,0.1111,0.1133,0.1201,0.1249,0.1314,0.133,0.1376,0.1403,0.1444,0.1553,0.1548,0.1612,0.1683,0.1632,0.163,0.1599,0.1559,0.1487,0.1503,0.1517,0.1455,0.1402,0.1311,0,0,0,0,0,0.1079,0.1087,0.1129,0.1171,0.1226,0.1261,0.1337,0.1381,0.147,0.1429,0.1483,0.1491,0.1473,0.1507,0.1444,0.1565,0.1571,0.1483,0.1499,0.1555,0.1568,0.1505,0,0,0,0,0,0,0.1057,0.1096,0.1101,0.109,0.1098,0.1144,0.1189,0.1253,0.1233,0.1328,0.1329,0.1392,0.1404,0.1492,0.1413,0.1422,0.1396,0.1525,0.152,0.1547,0.1559,0.157,0.151,0,0,0,0,0]},{"header":{"parameterUnit":"m.s-1","parameterCategory":2,"la1":30.2991,"la2":30.254,"lo1":-89.0895,"lo2":-89.0444,"dy":0.0017,"dx":0.0017,"nx":28,"ny":28,"refTime":"2023-09-06T09:00:00:Z","depth":"4","parameterNumber":3,"parameterNumberName":"V-component_of_CURRENTS"},"data":[0,0,0,0,0,0,0,0,0,0,0,0,0,0,0,0,0,0,0,0,0,0,0,0,0,0,0,0,0,0,0,0,0,0,0,0,0,0,0,0,0,0,0,0,0,0,0,0,0,0,0,0,0,0,0,0,0,0,0.0234,0.0234,0,0.0227,0.0227,0.0227,0.0216,0.0217,0.0217,0.0217,0.0178,0.0176,0.0175,0,0,0,0,0,0,0,0,0,0,0,0,0,0.0194,0.0195,0.0234,0.0234,0.0234,0.0227,0.0227,0.0226,0.0216,0.0217,0.0217,0.0217,0.0178,0.0177,0.0175,0,0,0,0,0,0,0,0,0,0,0,0,0,0.0199,0.0195,0.0234,0.023,0.023,0.0227,0.0227,0.0226,0.0216,0.0217,0.0217,0.0217,0.0178,0.0177,0.0175,0.0162,0,0,0.017,0.0169,0,0,0,0,0,0,0,0,0.0199,0.02,0.0231,0.0231,0.0231,0.0225,0.0199,0.0204,0.0216,0.0219,0.0217,0.0217,0.0192,0.0189,0.0184,0.016,0.0159,0.017,0.0169,0.0168,0.0168,0,0,0,0,0,0,0,0.0199,0.02,0.0228,0.0231,0.0231,0.0214,0.0215,0.0199,0.0202,0.0219,0.0218,0.0222,0.0192,0.0186,0.0183,0.0158,0.017,0.0168,0.0167,0.0167,0.0131,0.0131,0,0,0,0,0,0,0.0208,0.02,0.0229,0.0228,0.0218,0.0215,0.0216,0.0225,0.0203,0.0201,0.0222,0.0222,0.0189,0.0185,0.0182,0.0179,0.0168,0.0166,0.0165,0.0131,0.0131,0.0131,0,0,0,0,0,0,0.0207,0.021,0.0229,0.0216,0.0218,0.0217,0.0225,0.0224,0.0226,0.0207,0.0203,0.0227,0.0189,0.0184,0.0173,0.0177,0.0166,0.0164,0.0131,0.0131,0.0131,0.0165,0,0,0,0,0,0,0.0206,0.021,0.0219,0.0217,0.0219,0.0236,0.0226,0.0224,0.0229,0.0229,0.0209,0.0205,0.0188,0.0175,0.0171,0.0175,0.0163,0.0131,0.0131,0.0131,0.0164,0.0167,0.0169,0,0,0,0,0,0.0204,0.0218,0.022,0.0223,0.0232,0.0237,0.0236,0.0233,0.023,0.0234,0.0218,0.0206,0.0173,0.0174,0.0169,0.0172,0.013,0.0131,0.0131,0.0163,0.0166,0.0169,0,0,0,0,0,0,0.0203,0.0218,0.022,0.0238,0.0242,0.0237,0.0243,0.0239,0.0229,0.023,0.0206,0.0201,0.0192,0.0177,0.0179,0.0162,0.015,0.0149,0.0176,0.0179,0.0181,0.0197,0.0161,0,0,0,0,0,0.0209,0.0225,0.0232,0.0245,0.0251,0.0248,0.025,0.0249,0.0242,0.0239,0.0223,0.0205,0.0187,0.018,0.0163,0.0154,0.0141,0.0153,0.0155,0.0157,0.0167,0.0144,0.0145,0.0131,0.0131,0.0131,0,0,0.0211,0.0223,0.0231,0.0247,0.025,0.0262,0.0249,0.026,0.0263,0.0235,0.0232,0.0213,0.0186,0.0176,0.0171,0.0166,0.0155,0.0157,0.016,0.0168,0.0144,0.0146,0.0147,0.0131,0.0131,0.0131,0,0,0.0227,0.0237,0.0257,0.0265,0.0279,0.0277,0.0283,0.0283,0.0278,0.0273,0.0251,0.0238,0.0213,0.0196,0.0183,0.0188,0.0167,0.018,0.0206,0.0183,0.0185,0.0185,0.0175,0.0174,0.0182,0.0182,0.0182,0,0.0229,0.0257,0.0262,0.0282,0.0291,0.0287,0.0305,0.0297,0.0291,0.0287,0.0279,0.0246,0.0224,0.0209,0.021,0.0194,0.0181,0.0198,0.0187,0.0188,0.0188,0.0177,0.0176,0.0184,0.0184,0.0183,0.0183,0,0.0259,0.0282,0.0294,0.032,0.0327,0.0343,0.0339,0.0339,0.0332,0.0324,0.0312,0.0282,0.0265,0.0251,0.0232,0.0222,0.0212,0.0192,0.0183,0.0192,0.0179,0.0178,0.0186,0.0186,0.0185,0.0185,0,0,0.0265,0.0308,0.0313,0.0332,0.035,0.0358,0.0364,0.0368,0.0374,0.0358,0.0362,0.0327,0.0315,0.03,0.0272,0.0252,0.024,0.0227,0.0225,0.0222,0.0198,0.0193,0.0191,0.0216,0.0216,0.0215,0.0191,0,0.0288,0.0335,0.0347,0.0382,0.0404,0.0402,0.0408,0.0407,0.0401,0.0402,0.0371,0.0366,0.0331,0.0328,0.0301,0.0256,0.0237,0.0249,0.0186,0.0185,0.0183,0.0189,0.0215,0.0189,0.0189,0.0189,0.0188,0,0.0315,0.0344,0.0388,0.0419,0.0429,0.0444,0.0457,0.0464,0.0459,0.0455,0.0445,0.0423,0.0397,0.0366,0.0299,0.0308,0.0261,0.0223,0.0221,0.0205,0.0177,0.0176,0.0185,0.0186,0.0186,0.0186,0.0186,0,0.0323,0.0369,0.0406,0.0419,0.0453,0.0465,0.0478,0.0482,0.0495,0.0496,0.051,0.0469,0.046,0.0393,0.032,0.0308,0.0247,0.0218,0.017,0.017,0.0167,0.0166,0.0173,0.0173,0.0173,0.0173,0.0173,0,0.0345,0.0374,0.0415,0.0438,0.0473,0.0488,0.0521,0.0526,0.0545,0.057,0.0543,0.055,0.0466,0.042,0.0341,0.0259,0.0262,0.0183,0.0163,0.0182,0.0183,0.0166,0.0165,0.0172,0.0172,0.0172,0.0173,0,0.0352,0.0384,0.0425,0.0468,0.0483,0.0507,0.0554,0.0578,0.0595,0.0629,0.0637,0.0613,0.0557,0.0472,0.037,0.0295,0.0211,0.018,0.0225,0.0207,0.0144,0.0145,0.0124,0.0124,0.0124,0.0123,0.0123,0,0.0362,0.0388,0.0444,0.0468,0.0491,0.0532,0.0564,0.0598,0.0629,0.0664,0.0682,0.0653,0.0622,0.0485,0.0385,0.0248,0.0217,0.0172,0.0141,0.0156,0.0139,0.0141,0.0143,0.0123,0.0122,0.0122,0.0122,0,0.0372,0.0393,0.0424,0.0476,0.0517,0.0567,0.0615,0.0643,0.0689,0.071,0.0718,0.0658,0.06,0.0488,0.039,0.0283,0.0198,0.0168,0.0167,0.0137,0.0153,0.0137,0.014,0.0121,0.0121,0.0121,0.0121,0,0.0369,0.0386,0.0427,0.0471,0.0529,0.0585,0.0613,0.0655,0.0692,0.0733,0.0732,0.0677,0.0647,0.0507,0.0413,0.0316,0.0275,0.0219,0.0215,0.0215,0.0241,0.0275,0.0271,0,0,0,0,0,0.036,0.0378,0.0418,0.047,0.0532,0.057,0.0641,0.067,0.072,0.0727,0.0732,0.0679,0.0555,0.0507,0.0408,0.0389,0.025,0.0267,0.0181,0.0115,0.0116,0.013,0,0,0,0,0,0,0.0352,0.0384,0.0407,0.0469,0.0506,0.0578,0.0629,0.0664,0.067,0.0703,0.0643,0.063,0.0513,0.0607,0.0397,0.0371,0.0296,0.0219,0.0216,0.0114,0.0115,0.0116,0.0131,0,0,0,0,0]}]]